Weather History for Fort Indiantown Gap, PA

Change the Weather History Date:

Thursday, April 18, 2013

  Actual Average Record
Temperature  
Mean Temperature 55 °F -  
Max Temperature 57 °F 60 °F 86 °F (2002)
Min Temperature 53 °F 44 °F 33 °F (2014)
Degree Days  
Heating Degree Days 10    
Growing Degree Days 5 (Base 50)    
Moisture  
Dew Point 50 °F    
Average Humidity 84    
Maximum Humidity 100    
Minimum Humidity 55    
Precipitation  
Precipitation 0.02 in - - ()
Sea Level Pressure  
Sea Level Pressure 30.18 in    
Wind  
Wind Speed 5 mph (ENE)    
Max Wind Speed 9 mph    
Max Gust Speed -    
Visibility 8 miles    
Events Rain    
Averages and records for this station are not official NWS values.
T = Trace of Precipitation, MM = Missing Value Source: NWS Daily Summary

Daily Weather History Graph

Daily Weather History Graph

Search for Another Location

Airport:

Trip Planner

Search our weather history database for the weather conditions in past years. The results will help you decide how hot, cold, wet, or windy it might be!

Date:

Astronomy

Apr. 18, 2013 Rise Set
Actual Time 6:23 AM EDT 7:48 PM EDT
Civil Twilight 5:54 AM EDT 8:17 PM EDT
Nautical Twilight 5:20 AM EDT 8:51 PM EDT
Astronomical Twilight 4:44 AM EDT 9:27 PM EDT
Moon 12:32 PM EDT (4/18) 2:02 AM EDT (4/18)
Length of Visible Light 14h 22m
Length of Day
13h 25m
First Quarter, 51% of the Moon is Illuminated
Apr 18
First Quarter
Apr 25
Full
May 2
Last Quarter
May 9
New
May 18
First Quarter

Hourly Weather History & Observations

Time (EDT) Temp. Dew Point Humidity Pressure Visibility Wind Dir Wind Speed Gust Speed Precip Events Conditions
12:55 AM 56.3 °F 41.4 °F 57% 30.25 in 10.0 mi NE 4.6 mph - N/A   Mostly Cloudy
1:55 AM 56.5 °F 40.3 °F 55% 30.26 in 10.0 mi Calm Calm - N/A   Overcast
2:55 AM 57.2 °F 51.4 °F 81% 30.25 in 10.0 mi ESE 5.8 mph - N/A   Overcast
4:55 AM 55.4 °F 45.1 °F 68% 30.22 in 10.0 mi Calm Calm - N/A   Overcast
5:55 AM 54.7 °F 49.5 °F 83% 30.22 in 10.0 mi NE 4.6 mph - N/A   Overcast
6:55 AM 55.6 °F 43.3 °F 63% 30.23 in 10.0 mi ENE 5.8 mph - N/A   Overcast
7:55 AM 55.6 °F 41.2 °F 58% 30.25 in 10.0 mi ENE 5.8 mph - N/A   Overcast
8:55 AM 55.4 °F 40.5 °F 57% 30.25 in 10.0 mi NE 4.6 mph - N/A   Overcast
9:05 AM 55.4 °F 41.0 °F 58% 30.25 in 10.0 mi ENE 6.9 mph - N/A Rain Light Rain
9:15 AM 55.4 °F 41.0 °F 58% 30.25 in 10.0 mi ENE 6.9 mph - N/A   Overcast
9:21 AM 55.4 °F 41.0 °F 58% 30.26 in 10.0 mi ENE 4.6 mph - N/A Rain Light Rain
9:24 AM 55.4 °F 41.0 °F 58% 30.25 in 10.0 mi ENE 5.8 mph - N/A Rain Light Rain
9:30 AM 55.4 °F 41.0 °F 58% 30.25 in 10.0 mi ENE 9.2 mph - N/A   Overcast
9:55 AM 54.9 °F 40.8 °F 59% 30.25 in 10.0 mi ENE 6.9 mph - 0.00 in   Overcast
10:55 AM 55.6 °F 41.4 °F 59% 30.25 in 10.0 mi ENE 8.1 mph - N/A   Overcast
11:24 AM 55.4 °F 42.8 °F 63% 30.25 in 10.0 mi ENE 5.8 mph - N/A   Light Drizzle
11:31 AM 55.4 °F 42.8 °F 63% 30.25 in 10.0 mi ENE 6.9 mph - N/A   Overcast
11:55 AM 55.4 °F 43.0 °F 63% 30.25 in 10.0 mi ENE 4.6 mph - 0.00 in   Overcast
12:52 PM 55.4 °F 46.4 °F 72% 30.22 in 10.0 mi ENE 4.6 mph - N/A   Overcast
12:55 PM 55.4 °F 46.0 °F 71% 30.22 in 10.0 mi ENE 5.8 mph - N/A   Overcast
12:57 PM 55.4 °F 46.4 °F 72% 30.22 in 9.0 mi ENE 4.6 mph - N/A   Light Drizzle
1:12 PM 53.6 °F 50.0 °F 88% 30.21 in 10.0 mi ENE 6.9 mph - N/A   Overcast
1:56 PM 55.4 °F 53.6 °F 94% 30.19 in 9.0 mi ENE 5.8 mph - N/A   Light Drizzle
1:59 PM 55.4 °F 53.6 °F 94% 30.19 in 8.0 mi East 6.9 mph - N/A   Light Drizzle
2:10 PM 53.6 °F 53.6 °F 100% 30.19 in 6.0 mi East 8.1 mph - N/A   Light Drizzle
2:39 PM 55.4 °F 55.4 °F 100% 30.17 in 4.0 mi ENE 6.9 mph - N/A   Light Drizzle
2:51 PM 55.4 °F 55.4 °F 100% 30.17 in 5.0 mi ENE 6.9 mph - N/A   Overcast
2:55 PM 54.7 °F 54.7 °F 100% 30.17 in 5.0 mi Variable 5.8 mph - 0.01 in   Overcast
3:07 PM 55.4 °F 55.4 °F 100% 30.17 in 4.0 mi ENE 6.9 mph - N/A   Light Drizzle
3:09 PM 55.4 °F 55.4 °F 100% 30.17 in 3.0 mi ENE 6.9 mph - N/A   Light Drizzle
3:12 PM 55.4 °F 55.4 °F 100% 30.16 in 2.5 mi ENE 5.8 mph - N/A   Light Drizzle
3:23 PM 55.4 °F 55.4 °F 100% 30.16 in 3.0 mi NE 5.8 mph - N/A   Light Drizzle
3:26 PM 55.4 °F 55.4 °F 100% 30.16 in 4.0 mi ENE 5.8 mph - N/A   Overcast
3:55 PM 55.4 °F 55.4 °F 100% 30.15 in 5.0 mi NE 4.6 mph - 0.01 in   Overcast
4:55 PM 55.8 °F 55.8 °F 100% 30.13 in 6.0 mi NE 5.8 mph - N/A   Overcast
5:55 PM 56.1 °F 56.1 °F 100% 30.12 in 5.0 mi ENE 8.1 mph - N/A   Overcast
6:55 PM 56.5 °F 56.5 °F 100% 30.10 in 4.0 mi ENE 5.8 mph - N/A   Overcast
7:09 PM 57.2 °F 57.2 °F 100% 30.09 in 5.0 mi ENE 8.1 mph - N/A   Overcast
7:46 PM 57.2 °F 57.2 °F 100% 30.08 in 5.0 mi NE 4.6 mph - N/A   Overcast
7:55 PM 56.7 °F 56.7 °F 100% 30.08 in 7.0 mi NE 4.6 mph - N/A   Overcast
8:40 PM 57.2 °F 57.2 °F 100% 30.07 in 10.0 mi ENE 8.1 mph - N/A   Overcast
8:55 PM 56.7 °F 56.7 °F 100% 30.07 in 10.0 mi NE 5.8 mph - N/A   Overcast
9:41 PM 57.2 °F 57.2 °F 100% 30.06 in 9.0 mi ENE 5.8 mph - N/A   Mostly Cloudy
9:43 PM 57.2 °F 57.2 °F 100% 30.06 in 10.0 mi ENE 8.1 mph - N/A   Mostly Cloudy
9:53 PM 57.2 °F 57.2 °F 100% 30.06 in 10.0 mi NE 6.9 mph - N/A   Scattered Clouds
9:55 PM 56.5 °F 56.5 °F 100% 30.06 in 9.0 mi NE 5.8 mph - N/A   Scattered Clouds
10:55 PM 55.0 °F 55.0 °F 100% 30.04 in 7.0 mi NNE 4.6 mph - N/A   Clear
11:55 PM 55.8 °F 55.8 °F 100% 30.03 in 9.0 mi North 4.6 mph - N/A   Overcast